TimeEST,TemperatureF,Dew PointF,Humidity,Sea Level PressureIn,VisibilityMPH,Wind Direction,Wind SpeedMPH,Gust SpeedMPH,PrecipitationIn,Events,Conditions,WindDirDegrees,DateUTC
12:16 AM,22.8,17.1,79,30.05,7.0,WSW,11.5,-,N/A,Snow,Light Snow,240,2012-11-13 05:16:00
12:36 AM,23.0,17.1,78,30.06,10.0,WSW,11.5,17.3,N/A,Snow,Light Snow,250,2012-11-13 05:36:00
12:55 AM,23.4,17.6,79,30.07,7.0,WSW,11.5,-,N/A,Snow,Light Snow,240,2012-11-13 05:55:00
1:16 AM,23.4,18.1,80,30.08,10.0,WSW,10.4,-,N/A,Snow,Light Snow,240,2012-11-13 06:16:00
1:36 AM,23.7,17.8,78,30.09,10.0,WSW,8.1,-,N/A,,Overcast,240,2012-11-13 06:36:00
1:55 AM,23.7,18.3,80,30.09,10.0,WSW,11.5,-,N/A,Snow,Light Snow,240,2012-11-13 06:55:00
2:16 AM,23.9,18.5,80,30.10,10.0,WSW,10.4,-,N/A,,Overcast,240,2012-11-13 07:16:00
2:36 AM,23.4,18.5,82,30.11,10.0,WSW,9.2,-,N/A,,Mostly Cloudy,240,2012-11-13 07:36:00
2:55 AM,23.9,19.2,82,30.12,7.0,WSW,11.5,-,N/A,Snow,Light Snow,250,2012-11-13 07:55:00
3:16 AM,24.3,19.2,81,30.13,10.0,WSW,11.5,16.1,N/A,,Overcast,250,2012-11-13 08:16:00
3:36 AM,24.8,19.4,80,30.14,10.0,WSW,9.2,-,N/A,,Mostly Cloudy,250,2012-11-13 08:36:00
3:56 AM,23.7,18.7,81,30.14,10.0,WSW,9.2,-,N/A,,Mostly Cloudy,250,2012-11-13 08:56:00
4:16 AM,23.9,19.0,82,30.15,10.0,WSW,11.5,-,N/A,,Mostly Cloudy,250,2012-11-13 09:16:00
4:35 AM,23.9,19.0,82,30.15,10.0,WSW,11.5,-,N/A,,Mostly Cloudy,250,2012-11-13 09:35:00
4:56 AM,23.5,19.0,83,30.16,10.0,West,12.7,-,N/A,,Clear,260,2012-11-13 09:56:00
5:16 AM,23.5,18.9,82,30.17,10.0,West,9.2,18.4,N/A,,Clear,270,2012-11-13 10:16:00
5:35 AM,23.7,19.2,83,30.18,5.0,West,11.5,-,N/A,Snow,Light Snow,270,2012-11-13 10:35:00
5:56 AM,23.5,19.2,84,30.20,10.0,West,10.4,-,N/A,Snow,Light Snow,270,2012-11-13 10:56:00
6:50 AM,23.0,19.4,86,30.23,10.0,West,9.2,-,N/A,,Clear,260,2012-11-13 11:50:00
7:50 AM,21.2,17.6,86,30.26,10.0,WSW,9.2,-,N/A,,Clear,250,2012-11-13 12:50:00
8:55 AM,23.0,19.4,86,30.29,10.0,WSW,8.1,-,N/A,,Clear,250,2012-11-13 13:55:00
9:55 AM,26.6,19.4,74,30.29,10.0,WNW,9.2,-,N/A,,Mostly Cloudy,290,2012-11-13 14:55:00
10:50 AM,26.6,19.4,74,30.32,10.0,WNW,5.8,-,N/A,,Overcast,300,2012-11-13 15:50:00
11:55 AM,28.4,19.4,69,30.32,10.0,WNW,4.6,-,N/A,,Scattered Clouds,300,2012-11-13 16:55:00
12:50 PM,30.2,19.4,64,30.30,10.0,West,3.5,-,N/A,,Clear,270,2012-11-13 17:50:00
1:55 PM,33.8,19.4,56,30.29,10.0,South,6.9,-,N/A,,Clear,180,2012-11-13 18:55:00
2:50 PM,33.8,17.6,52,30.29,10.0,South,9.2,-,N/A,,Clear,190,2012-11-13 19:50:00
3:50 PM,33.8,19.4,56,30.30,10.0,SW,8.1,-,N/A,,Clear,220,2012-11-13 20:50:00
4:50 PM,33.8,19.4,56,30.31,10.0,SSW,8.1,-,N/A,,Clear,210,2012-11-13 21:50:00
5:50 PM,30.2,19.4,64,30.32,10.0,South,5.8,-,N/A,,Clear,190,2012-11-13 22:50:00
6:50 PM,28.4,19.4,69,30.33,10.0,South,6.9,-,N/A,,Clear,190,2012-11-13 23:50:00
7:50 PM,28.4,17.6,64,30.33,10.0,South,9.2,-,N/A,,Clear,190,2012-11-14 00:50:00
8:50 PM,28.4,19.4,69,30.34,10.0,South,9.2,-,N/A,,Clear,190,2012-11-14 01:50:00
9:45 PM,26.6,19.4,74,30.34,10.0,SSW,8.1,-,N/A,,Clear,200,2012-11-14 02:45:00
10:16 PM,26.6,19.4,74,30.34,10.0,SSW,6.9,-,N/A,,Clear,200,2012-11-14 03:16:00
10:36 PM,26.4,19.4,75,30.34,10.0,SSW,6.9,-,N/A,,Clear,200,2012-11-14 03:36:00
10:56 PM,26.4,19.4,75,30.35,10.0,SSW,6.9,-,N/A,,Clear,200,2012-11-14 03:56:00
11:16 PM,26.2,19.6,76,30.35,10.0,South,5.8,-,N/A,,Clear,190,2012-11-14 04:16:00
11:36 PM,26.2,19.4,75,30.36,10.0,SSW,6.9,-,N/A,,Clear,200,2012-11-14 04:36:00
11:56 PM,26.1,19.4,76,30.36,10.0,SSW,8.1,-,N/A,,Clear,200,2012-11-14 04:56:00